FW1140 Weather Reports


Display with metric or nautical units.
time (UTC)temp
F
wind
direction
speed
MPH
gust
MPH
rain 1hr
in
rain 24hr
in
rain mn
in
humidity
%
barometer
mb
20260504013011 58 243 4.0 6.0 0.00 0.00 0.00 42 1001.2
20260504011509 63 233 4.0 9.0 0.00 0.00 0.00 36 1001.4
20260504010007 65 228 3.0 7.0 0.00 0.00 0.00 34 1001.5
20260504004507 67 273 5.0 8.0 0.00 0.00 0.00 30 1001.6
20260504003005 68 240 6.0 11.0 0.00 0.00 0.00 28 1001.7
20260504001504 68 262 8.0 14.0 0.00 0.00 0.00 28 1001.8
20260504000006 69 270 6.0 15.0 0.00 0.00 0.00 26 1001.8
20260503234503 69 262 9.0 14.0 0.00 0.00 0.00 25 1002.1
20260503233102 69 246 10.0 19.0 0.00 0.00 0.00 25 1002.3
20260503231559 70 256 9.0 16.0 0.00 0.00 0.00 25 1002.3
20260503230100 70 231 8.0 15.0 0.00 0.00 0.00 25 1002.6
20260503224555 70 267 13.0 17.0 0.00 0.00 0.00 24 1002.8
20260503223055 70 260 12.0 18.0 0.00 0.00 0.00 24 1003.0
20260503221552 71 285 11.0 18.0 0.00 0.00 0.00 25 1003.1
20260503220053 70 282 11.0 18.0 0.00 0.00 0.00 26 1003.3
20260503214549 70 298 8.0 16.0 0.00 0.00 0.00 25 1003.4
20260503213055 70 332 11.0 19.0 0.00 0.00 0.00 26 1003.5
20260503211544 70 264 5.0 16.0 0.00 0.00 0.00 27 1003.9
20260503210046 69 270 10.0 18.0 0.00 0.00 0.00 26 1004.1
20260503204543 69 252 9.0 21.0 0.00 0.00 0.00 28 1004.4
20260503203045 69 291 9.0 20.0 0.00 0.00 0.00 28 1004.8
20260503201541 70 322 11.0 17.0 0.00 0.00 0.00 27 1005.1
20260503200044 68 307 9.0 17.0 0.00 0.00 0.00 28 1005.4
20260503194539 68 297 6.0 16.0 0.00 0.00 0.00 31 1005.4
20260503193039 68 309 11.0 19.0 0.00 0.00 0.00 33 1005.6
20260503191534 68 309 12.0 20.0 0.00 0.00 0.00 34 1005.8
20260503190034 68 290 14.0 19.0 0.00 0.00 0.00 36 1006.1
20260503184533 68 300 7.0 18.0 0.00 0.00 0.00 36 1006.3
20260503183050 68 325 13.0 17.0 0.00 0.00 0.00 36 1006.5
20260503181530 67 295 13.0 17.0 0.00 0.00 0.00 37 1006.7
20260503180029 67 322 13.0 17.0 0.00 0.00 0.00 36 1006.8
20260503174526 66 273 9.0 16.0 0.00 0.00 0.00 37 1006.9
20260503173025 65 347 9.0 16.0 0.00 0.00 0.00 39 1007.0
20260503171521 64 334 7.0 16.0 0.00 0.00 0.00 39 1007.1
20260503081513 53 332 13.0 19.0 0.00 0.00 0.00 58 1005.4
20260503071507 53 308 14.0 19.0 0.00 0.00 0.00 58 1004.9
20260503054551 59 273 10.0 14.0 0.00 0.00 0.00 48 1004.3
20260503053041 60 287 6.0 12.0 0.00 0.00 0.00 47 1004.3
20260503051538 60 262 6.0 11.0 0.00 0.00 0.00 46 1004.3
20260503050037 60 246 8.0 11.0 0.00 0.00 0.00 46 1004.4
20260503044533 58 233 8.0 12.0 0.00 0.00 0.00 51 1004.4
20260503043033 58 248 8.0 13.0 0.00 0.00 0.00 50 1004.5
20260503041532 59 265 10.0 13.0 0.00 0.00 0.00 49 1004.5
20260503040036 59 249 7.0 12.0 0.00 0.00 0.00 48 1004.5
20260503034536 59 245 7.0 10.0 0.00 0.00 0.00 47 1004.6
20260503033032 61 198 9.0 14.0 0.00 0.00 0.00 43 1004.5
20260503031530 61 173 10.0 13.0 0.00 0.00 0.00 44 1004.6
20260503030028 60 186 10.0 13.0 0.00 0.00 0.00 46 1004.7
20260503024527 61 195 8.0 14.0 0.00 0.00 0.00 45 1004.9
20260503023025 65 195 14.0 25.0 0.00 0.00 0.00 39 1005.2
20260503021524 62 255 6.0 11.0 0.00 0.00 0.00 44 1005.2
20260503020024 63 253 4.0 9.0 0.00 0.00 0.00 40 1005.2
20260503014537 65 222 8.0 13.0 0.00 0.00 0.00 36 1005.4